| time (UTC) | temp F | wind direction | speed knots | gust knots | rain 1hr in | rain 24hr in | rain mn in | humidity % | barometer mb |
| 20260507180625 | 74 | 220 | 4.3 | 0.0 | 0.00 | 0.00 | 0.00 | 72 | 1011.0 |
| 20260507173624 | 74 | 220 | 4.3 | 0.0 | 0.00 | 0.00 | 0.00 | 72 | 1012.0 |
| 20260507170623 | 74 | 220 | 4.3 | 0.0 | 0.00 | 0.00 | 0.00 | 72 | 1013.0 |
| 20260507163622 | 71 | 0 | 0.9 | 0.0 | 0.00 | 0.00 | 0.00 | 83 | 1014.0 |
| 20260507160620 | 71 | 0 | 0.9 | 0.0 | 0.00 | 0.00 | 0.00 | 83 | 1015.0 |
| 20260507153619 | 70 | 0 | 0.9 | 0.0 | 0.00 | 0.00 | 0.00 | 83 | 1015.0 |
| 20260507150618 | 70 | 0 | 0.9 | 0.0 | 0.00 | 0.00 | 0.00 | 83 | 1016.0 |
| 20260507143617 | 65 | 0 | 0.9 | 0.0 | 0.00 | 0.00 | 0.00 | 81 | 1016.0 |
| 20260507140616 | 64 | 0 | 0.9 | 0.0 | 0.00 | 0.00 | 0.00 | 79 | 1016.0 |
| 20260507133615 | 64 | 0 | 0.9 | 0.0 | 0.00 | 0.00 | 0.00 | 77 | 1016.0 |
| 20260507130614 | 64 | 298 | 0.0 | 1.7 | 0.00 | 0.00 | 0.00 | 75 | 1016.0 |
| 20260507123614 | 58 | 91 | 3.5 | 3.5 | 0.00 | 0.00 | 0.00 | 80 | 1016.0 |
| 20260507120612 | 58 | 91 | 3.5 | 3.5 | 0.00 | 0.00 | 0.00 | 80 | 1016.0 |
| 20260507113611 | 58 | 91 | 3.5 | 3.5 | 0.00 | 0.00 | 0.00 | 80 | 1016.0 |
| 20260507110610 | 58 | 91 | 3.5 | 3.5 | 0.00 | 0.00 | 0.00 | 80 | 1016.0 |
| 20260507103609 | 58 | 91 | 3.5 | 3.5 | 0.00 | 0.00 | 0.00 | 80 | 1016.0 |
| 20260507100608 | 58 | 91 | 3.5 | 3.5 | 0.00 | 0.00 | 0.00 | 80 | 1016.0 |
| 20260507093607 | 58 | 91 | 3.5 | 3.5 | 0.00 | 0.00 | 0.00 | 80 | 1016.0 |
| 20260507090606 | 59 | 91 | 3.5 | 3.5 | 0.00 | 0.00 | 0.00 | 80 | 1016.0 |
| 20260507083605 | 59 | 91 | 3.5 | 3.5 | 0.00 | 0.00 | 0.00 | 80 | 1016.0 |
| 20260507080604 | 59 | 91 | 3.5 | 3.5 | 0.00 | 0.00 | 0.00 | 80 | 1016.0 |
| 20260507073603 | 59 | 91 | 3.5 | 3.5 | 0.00 | 0.00 | 0.00 | 80 | 1016.0 |
| 20260507070602 | 59 | 91 | 3.5 | 3.5 | 0.00 | 0.00 | 0.00 | 80 | 1016.0 |
| 20260507063601 | 59 | 91 | 3.5 | 3.5 | 0.00 | 0.00 | 0.00 | 80 | 1016.0 |
| 20260507060600 | 59 | 91 | 3.5 | 3.5 | 0.00 | 0.00 | 0.00 | 80 | 1016.0 |
| 20260507053559 | 59 | 91 | 3.5 | 3.5 | 0.00 | 0.00 | 0.00 | 80 | 1017.0 |
| 20260507050558 | 59 | 91 | 3.5 | 3.5 | 0.00 | 0.00 | 0.00 | 80 | 1017.0 |
| 20260507043558 | 60 | 91 | 3.5 | 3.5 | 0.00 | 0.00 | 0.00 | 80 | 1017.0 |
| 20260507040556 | 60 | 91 | 3.5 | 3.5 | 0.00 | 0.00 | 0.00 | 80 | 1017.0 |
| 20260507033555 | 60 | 91 | 3.5 | 3.5 | 0.00 | 0.00 | 0.00 | 80 | 1017.0 |
| 20260507030553 | 61 | 91 | 3.5 | 3.5 | 0.00 | 0.00 | 0.00 | 80 | 1016.0 |
| 20260507023552 | 61 | 91 | 3.5 | 3.5 | 0.00 | 0.00 | 0.00 | 80 | 1016.0 |
| 20260507020551 | 62 | 91 | 3.5 | 3.5 | 0.00 | 0.00 | 0.00 | 80 | 1015.0 |
| 20260507013550 | 62 | 91 | 3.5 | 3.5 | 0.00 | 0.00 | 0.00 | 80 | 1015.0 |
| 20260507010549 | 63 | 91 | 3.5 | 3.5 | 0.00 | 0.00 | 0.00 | 80 | 1014.0 |
| 20260507003548 | 63 | 91 | 3.5 | 3.5 | 0.00 | 0.00 | 0.00 | 80 | 1014.0 |
| 20260507000547 | 63 | 91 | 3.5 | 3.5 | 0.00 | 0.00 | 0.00 | 80 | 1013.0 |
| 20260506233546 | 70 | 210 | 7.0 | 0.0 | 0.00 | 0.00 | 0.00 | 80 | 1013.0 |
| 20260506230545 | 70 | 210 | 7.0 | 0.0 | 0.00 | 0.00 | 0.00 | 80 | 1011.0 |
| 20260506223544 | 71 | 210 | 7.0 | 0.0 | 0.00 | 0.00 | 0.00 | 80 | 1011.0 |
| 20260506220543 | 72 | 210 | 7.0 | 0.0 | 0.00 | 0.00 | 0.00 | 80 | 1010.0 |
| 20260506213542 | 72 | 210 | 7.0 | 0.0 | 0.00 | 0.00 | 0.00 | 80 | 1010.0 |
| 20260506210541 | 73 | 210 | 7.0 | 0.0 | 0.00 | 0.00 | 0.00 | 80 | 1010.0 |
| 20260506203540 | 73 | 210 | 7.0 | 0.0 | 0.00 | 0.00 | 0.00 | 80 | 1010.0 |
| 20260506200538 | 73 | 210 | 7.0 | 0.0 | 0.00 | 0.00 | 0.00 | 81 | 1010.0 |
| 20260506193537 | 73 | 210 | 7.0 | 0.0 | 0.00 | 0.00 | 0.00 | 83 | 1010.0 |
| 20260506190536 | 73 | 210 | 7.0 | 0.0 | 0.00 | 0.00 | 0.00 | 83 | 1011.0 |
| 20260506183536 | 73 | 210 | 7.0 | 0.0 | 0.00 | 0.00 | 0.00 | 83 | 1011.0 |